• Em Portugal
  • Lista de países
  • Para 7 dias
  • Temperatura da água
  • Mapas de satélite
  • Mapa do tempo
  • Widgets de tempo
  • user-avatar
    Iniciar Sessão

    Previsão horária em Mazari Sharif

    Hoje, 20 Janeiro, Sábado

    Tempo Temperatura Precipitação Vento Pressão Humidade
    00:00 +4°C° 0 mm 3 m/s 656 mmHg 30%
    01:00 +4°C° 0 mm 3 m/s 656 mmHg 29%
    02:00 +4°C° 0 mm 3 m/s 656 mmHg 29%
    03:00 +4°C° 0 mm 3 m/s 656 mmHg 28%
    04:00 +4°C° 0 mm 3 m/s 655 mmHg 27%
    05:00 +3°C° 0 mm 3 m/s 655 mmHg 27%
    06:00 +3°C° 0 mm 3 m/s 655 mmHg 26%
    07:00 +3°C° 0 mm 3 m/s 655 mmHg 25%
    08:00 +7°C° 0 mm 3 m/s 655 mmHg 23%
    09:00 +9°C° 0 mm 3 m/s 656 mmHg 22%
    10:00 +12°C° 0 mm 2 m/s 656 mmHg 21%
    11:00 +13°C° 0 mm 2 m/s 656 mmHg 20%
    12:00 +14°C° 0 mm 2 m/s 655 mmHg 18%
    13:00 +15°C° 0 mm 2 m/s 655 mmHg 17%
    14:00 +14°C° 0 mm 2 m/s 655 mmHg 19%
    15:00 +13°C° 0 mm 2 m/s 654 mmHg 20%
    16:00 +10°C° 0 mm 2 m/s 653 mmHg 22%
    17:00 +9°C° 0 mm 2 m/s 653 mmHg 23%
    18:00 +8°C° 0 mm 2 m/s 653 mmHg 24%
    19:00 +8°C° 0 mm 2 m/s 652 mmHg 24%
    20:00 +7°C° 0 mm 2 m/s 652 mmHg 24%
    21:00 +7°C° 0 mm 2 m/s 652 mmHg 24%
    22:00 +7°C° 0 mm 2 m/s 652 mmHg 23%
    23:00 +6°C° 0 mm 2 m/s 652 mmHg 23%

    Amanhã, 21 Janeiro, Domingo

    Tempo Temperatura Precipitação Vento Pressão Humidade
    00:00 +6°C° 0 mm 2 m/s 652 mmHg 23%
    01:00 +6°C° 0 mm 2 m/s 651 mmHg 23%
    02:00 +5°C° 0 mm 2 m/s 651 mmHg 23%
    03:00 +5°C° 0 mm 2 m/s 651 mmHg 23%
    04:00 +5°C° 0 mm 2 m/s 651 mmHg 23%
    05:00 +5°C° 0 mm 2 m/s 651 mmHg 22%
    06:00 +4°C° 0 mm 2 m/s 651 mmHg 22%
    07:00 +4°C° 0 mm 2 m/s 652 mmHg 21%
    08:00 +6°C° 0 mm 2 m/s 653 mmHg 19%
    09:00 +8°C° 0 mm 2 m/s 653 mmHg 17%
    10:00 +12°C° 0 mm 2 m/s 654 mmHg 15%
    11:00 +12°C° 0 mm 2 m/s 654 mmHg 16%
    12:00 +11°C° 0 mm 3 m/s 654 mmHg 17%
    13:00 +11°C° 0 mm 3 m/s 653 mmHg 17%
    14:00 +10°C° 0 mm 3 m/s 653 mmHg 20%
    15:00 +9°C° 0 mm 3 m/s 653 mmHg 24%
    16:00 +8°C° 0 mm 3 m/s 653 mmHg 27%
    17:00 +7°C° 0 mm 2 m/s 653 mmHg 30%
    18:00 +6°C° 0 mm 2 m/s 654 mmHg 34%
    19:00 +4°C° 0 mm 2 m/s 654 mmHg 37%
    20:00 +4°C° 0 mm 2 m/s 654 mmHg 39%
    21:00 +3°C° 0 mm 2 m/s 654 mmHg 40%
    22:00 +3°C° 0 mm 2 m/s 654 mmHg 42%
    23:00 +3°C° 0 mm 1 m/s 654 mmHg 43%

    Depois de amanhã, 22 Janeiro, Segunda-feira

    Tempo Temperatura Precipitação Vento Pressão Humidade
    00:00 +3°C° 0 mm 1 m/s 654 mmHg 45%
    01:00 +2°C° 0 mm 1 m/s 654 mmHg 46%
    02:00 +2°C° 0 mm 1 m/s 654 mmHg 47%
    03:00 +2°C° 0 mm 1 m/s 654 mmHg 48%
    04:00 +1°C° 0 mm 1 m/s 653 mmHg 49%
    05:00 +1°C° 0 mm 1 m/s 654 mmHg 50%
    06:00 +1°C° 0 mm 1 m/s 654 mmHg 50%
    07:00 +1°C° 0 mm 1 m/s 654 mmHg 51%
    08:00 +2°C° 0 mm 1 m/s 655 mmHg 47%
    09:00 +4°C° 0 mm 1 m/s 655 mmHg 42%
    10:00 +5°C° 0 mm 1 m/s 656 mmHg 38%
    11:00 +5°C° 0 mm 2 m/s 655 mmHg 37%
    12:00 +5°C° 0 mm 2 m/s 655 mmHg 36%
    13:00 +6°C° 0 mm 2 m/s 655 mmHg 35%
    14:00 +6°C° 0 mm 2 m/s 655 mmHg 37%
    15:00 +5°C° 0 mm 2 m/s 655 mmHg 39%
    16:00 +5°C° 0 mm 2 m/s 655 mmHg 41%
    17:00 +5°C° 0 mm 1 m/s 655 mmHg 44%
    18:00 +4°C° 0 mm 1 m/s 655 mmHg 47%
    19:00 +4°C° 0 mm 1 m/s 655 mmHg 50%
    20:00 +2°C° 0 mm 0 m/s 655 mmHg 51%
    21:00 +2°C° 0 mm 0 m/s 655 mmHg 51%
    22:00 +2°C° 0 mm 0 m/s 654 mmHg 52%
    23:00 +3°C° 0 mm 1 m/s 654 mmHg 51%

    23 Janeiro, Terça-feira

    Tempo Temperatura Precipitação Vento Pressão Humidade
    00:00 +3°C° 0 mm 1 m/s 654 mmHg 51%
    01:00 +3°C° 0 mm 1 m/s 654 mmHg 50%
    02:00 +2°C° 0 mm 1 m/s 654 mmHg 50%
    03:00 +2°C° 0 mm 1 m/s 653 mmHg 49%
    04:00 +2°C° 0 mm 1 m/s 653 mmHg 49%
    05:00 +2°C° 0 mm 1 m/s 653 mmHg 47%
    06:00 +1°C° 0 mm 2 m/s 653 mmHg 46%
    07:00 +1°C° 0 mm 2 m/s 653 mmHg 44%
    08:00 +3°C° 0 mm 2 m/s 654 mmHg 38%
    09:00 +5°C° 0 mm 2 m/s 654 mmHg 32%
    10:00 +8°C° 0 mm 2 m/s 655 mmHg 26%
    11:00 +8°C° 0 mm 2 m/s 654 mmHg 25%
    12:00 +9°C° 0 mm 2 m/s 654 mmHg 23%
    13:00 +10°C° 0 mm 3 m/s 653 mmHg 22%
    14:00 +10°C° 0 mm 2 m/s 653 mmHg 24%
    15:00 +9°C° 0 mm 2 m/s 653 mmHg 26%
    16:00 +9°C° 0 mm 2 m/s 652 mmHg 29%
    17:00 +7°C° 0 mm 2 m/s 652 mmHg 30%
    18:00 +6°C° 0 mm 2 m/s 652 mmHg 32%
    19:00 +5°C° 0 mm 2 m/s 652 mmHg 34%
    20:00 +5°C° 0 mm 2 m/s 652 mmHg 33%
    21:00 +5°C° 0 mm 2 m/s 652 mmHg 32%
    22:00 +4°C° 0 mm 3 m/s 652 mmHg 31%
    23:00 +4°C° 0 mm 3 m/s 652 mmHg 30%

    24 Janeiro, Quarta-feira

    Tempo Temperatura Precipitação Vento Pressão Humidade
    00:00 +4°C° 0 mm 3 m/s 652 mmHg 29%
    01:00 +4°C° 0 mm 3 m/s 652 mmHg 28%
    02:00 +4°C° 0 mm 3 m/s 652 mmHg 28%
    03:00 +5°C° 0 mm 2 m/s 651 mmHg 27%
    04:00 +5°C° 0 mm 2 m/s 651 mmHg 26%
    05:00 +4°C° 0 mm 2 m/s 652 mmHg 25%
    06:00 +4°C° 0 mm 2 m/s 652 mmHg 24%
    07:00 +4°C° 0 mm 2 m/s 652 mmHg 24%
    08:00 +6°C° 0 mm 2 m/s 653 mmHg 21%
    09:00 +8°C° 0 mm 2 m/s 653 mmHg 18%
    10:00 +12°C° 0 mm 2 m/s 654 mmHg 15%
    11:00 +12°C° 0 mm 2 m/s 654 mmHg 14%
    12:00 +13°C° 0 mm 2 m/s 654 mmHg 13%
    13:00 +14°C° 0 mm 2 m/s 653 mmHg 12%
    14:00 +13°C° 0 mm 2 m/s 653 mmHg 15%
    15:00 +12°C° 0 mm 2 m/s 653 mmHg 17%
    16:00 +12°C° 0 mm 2 m/s 653 mmHg 19%
    17:00 +10°C° 0 mm 1 m/s 653 mmHg 20%
    18:00 +9°C° 0 mm 1 m/s 653 mmHg 22%
    19:00 +7°C° 0 mm 1 m/s 653 mmHg 23%
    20:00 +7°C° 0 mm 1 m/s 653 mmHg 23%
    21:00 +7°C° 0 mm 1 m/s 653 mmHg 23%
    22:00 +7°C° 0 mm 1 m/s 653 mmHg 22%
    23:00 +6°C° 0 mm 1 m/s 653 mmHg 23%

    25 Janeiro, Quinta-feira

    Tempo Temperatura Precipitação Vento Pressão Humidade
    00:00 +5°C° 0 mm 2 m/s 653 mmHg 23%
    01:00 +5°C° 0 mm 2 m/s 653 mmHg 23%
    02:00 +5°C° 0 mm 2 m/s 654 mmHg 23%
    03:00 +5°C° 0 mm 2 m/s 654 mmHg 23%
    04:00 +4°C° 0 mm 2 m/s 654 mmHg 24%
    05:00 +4°C° 0 mm 2 m/s 654 mmHg 24%
    06:00 +4°C° 0 mm 2 m/s 655 mmHg 25%
    07:00 +4°C° 0 mm 2 m/s 655 mmHg 25%
    08:00 +6°C° 0 mm 2 m/s 656 mmHg 23%
    09:00 +9°C° 0 mm 1 m/s 657 mmHg 20%
    10:00 +11°C° 0 mm 1 m/s 658 mmHg 18%
    11:00 +11°C° 0 mm 1 m/s 657 mmHg 18%
    12:00 +12°C° 0 mm 1 m/s 657 mmHg 17%
    13:00 +12°C° 0 mm 1 m/s 657 mmHg 17%
    14:00 +12°C° 0 mm 1 m/s 657 mmHg 19%
    15:00 +11°C° 0 mm 1 m/s 657 mmHg 21%
    16:00 +11°C° 0 mm 1 m/s 657 mmHg 23%
    17:00 +9°C° 0 mm 1 m/s 657 mmHg 25%
    18:00 +8°C° 0 mm 1 m/s 657 mmHg 28%
    19:00 +7°C° 0 mm 1 m/s 657 mmHg 31%
    20:00 +6°C° 0 mm 1 m/s 657 mmHg 31%
    21:00 +6°C° 0 mm 1 m/s 657 mmHg 30%
    22:00 +6°C° 0 mm 1 m/s 657 mmHg 30%
    23:00 +6°C° 0 mm 1 m/s 657 mmHg 30%
    Mostrar mais